Terminal Aerodrome Forecast
Issued by NWS Melbourne, FL

Home | Current Version | Previous Version | Text Only | Print | Product List | Glossary On
Versions: 1 2 3 4 5 6 7 8 9 10 11 12 13 14 15 16 17 18 19 20 21 22 23
000
FTUS42 KMLB 042337
TAFDAB
TAF
KDAB 042337Z 0500/0524 20008KT P6SM FEW030 SCT050
     FM050100 18006KT P6SM FEW025 SCT250
     FM050900 VRB03KT 3SM BR SCT010 BKN025
     FM051400 21007KT P6SM SCT025 BKN035=

USA.gov is the U.S. government's official web portal to all federal, state and local government web resources and services.